This is the latest recevied weather packets stored in our database for station/object AE5PL. If no packets are shown the sender has not sent any weather packets the latest 1 day(s).
| Time | Temp. | Humidity | Pressure | Rain* | Wind** | Luminosity | Snow |
|---|---|---|---|---|---|---|---|
| 1777979805 | 21.67° C | 86% | 1003.1 hPa | - | 1.34 m/s, 225° | - | - |
| 1777979505 | 21.67° C | 85% | 1003 hPa | - | 1.34 m/s, 180° | - | - |
| 1777979205 | 21.67° C | 85% | 1003 hPa | - | 0.89 m/s, 225° | - | - |
| 1777978905 | 21.67° C | 85% | 1003.1 hPa | - | 0.45 m/s, 202° | - | - |
| 1777978605 | 21.67° C | 85% | 1003.2 hPa | - | 1.79 m/s, 225° | - | - |
| 1777978305 | 21.67° C | 85% | 1003.3 hPa | - | 0.45 m/s, 225° | - | - |
| 1777978005 | 21.67° C | 85% | 1003.2 hPa | - | 0.89 m/s, 225° | - | - |
| 1777977705 | 21.67° C | 85% | 1003.3 hPa | - | 0.89 m/s, 202° | - | - |
| 1777977405 | 21.67° C | 85% | 1003.2 hPa | - | 0.89 m/s, 180° | - | - |
| 1777977105 | 21.67° C | 85% | 1003.2 hPa | - | 0.89 m/s, 225° | - | - |
| 1777976805 | 21.67° C | 85% | 1003.2 hPa | - | 1.79 m/s, 202° | - | - |
| 1777976505 | 21.67° C | 86% | 1003.1 hPa | - | 1.34 m/s, 225° | - | - |
| 1777976205 | 21.67° C | 86% | 1003.1 hPa | - | 0.89 m/s, 225° | - | - |
| 1777975905 | 21.67° C | 86% | 1003.1 hPa | - | 1.79 m/s, 225° | - | - |
| 1777975605 | 21.67° C | 86% | 1003 hPa | - | 1.34 m/s, 157° | - | - |
| 1777975305 | 21.67° C | 86% | 1003 hPa | - | 1.79 m/s, 202° | - | - |
| 1777975005 | 21.67° C | 86% | 1003.1 hPa | - | 1.34 m/s, 180° | - | - |
| 1777974705 | 21.67° C | 86% | 1003.2 hPa | - | 1.34 m/s, 225° | - | - |
| 1777974405 | 21.67° C | 86% | 1003.3 hPa | - | 1.34 m/s, 202° | - | - |
| 1777974105 | 21.67° C | 86% | 1003.1 hPa | - | 1.34 m/s, 225° | - | - |
| 1777973805 | 21.67° C | 86% | 1003.3 hPa | - | 1.34 m/s, 157° | - | - |
| 1777973505 | 21.67° C | 86% | 1003.3 hPa | - | 1.34 m/s, 225° | - | - |
| 1777973205 | 21.67° C | 86% | 1003.5 hPa | - | 1.34 m/s, 225° | - | - |
| 1777972905 | 21.11° C | 86% | 1003.5 hPa | - | 1.34 m/s, 202° | - | - |
| 1777972605 | 21.11° C | 86% | 1003.5 hPa | - | 0.89 m/s, 180° | - | - |
* Rain since midnight (hover to see other rain measurements)
** Current wind speed in m/s (hover to see current wind gust speed)